When you browse on this site, cookies collect data to enhance your experience and personalize the content and advertising you see.
Visit our Privacy Policy to learn more. By continuing to use the site, you agree to this use of cookies and data.
  • In Latvia
  • List of Countries
  • For 7 days
  • Water Temperature
  • Satellite Maps
  • Weather Map
  • Weather Widgets
  • user-avatar
    Login

    Hourly Weather Zgoda

    Today, 18 February, Monday

    Time Temperature Precipitation Wind Pressure Humidity
    00:00 +4°C° 0 mm 2 mps 752 mmHg 86%
    01:00 +3°C° 0 mm 2 mps 752 mmHg 87%
    02:00 +3°C° 0 mm 2 mps 752 mmHg 88%
    03:00 +3°C° 0 mm 2 mps 752 mmHg 88%
    04:00 +3°C° 0 mm 1 mps 752 mmHg 88%
    05:00 +3°C° 0 mm 1 mps 752 mmHg 88%
    06:00 +3°C° 0 mm 1 mps 752 mmHg 88%
    07:00 +3°C° 0 mm 1 mps 752 mmHg 88%
    08:00 +2°C° 0 mm 0 mps 752 mmHg 88%
    09:00 +4°C° 0 mm 1 mps 752 mmHg 82%
    10:00 +6°C° 0 mm 1 mps 752 mmHg 76%
    11:00 +7°C° 0 mm 1 mps 752 mmHg 70%
    12:00 +8°C° 0 mm 1 mps 752 mmHg 66%
    13:00 +9°C° 0 mm 1 mps 751 mmHg 62%
    14:00 +10°C° 0 mm 1 mps 751 mmHg 58%
    15:00 +10°C° 0 mm 1 mps 751 mmHg 60%
    16:00 +10°C° 0 mm 1 mps 751 mmHg 62%
    17:00 +10°C° 0 mm 1 mps 750 mmHg 64%
    18:00 +9°C° 0 mm 1 mps 750 mmHg 69%
    19:00 +8°C° 0 mm 1 mps 750 mmHg 73%
    20:00 +7°C° 0 mm 1 mps 750 mmHg 78%
    21:00 +6°C° 0 mm 1 mps 750 mmHg 80%
    22:00 +4°C° 0 mm 2 mps 750 mmHg 83%
    23:00 +4°C° 0 mm 2 mps 750 mmHg 86%

    Tomorrow, 19 February, Tuesday

    Time Temperature Precipitation Wind Pressure Humidity
    00:00 +3°C° 0 mm 2 mps 750 mmHg 86%
    01:00 +3°C° 0 mm 2 mps 750 mmHg 86%
    02:00 +3°C° 0 mm 2 mps 750 mmHg 87%
    03:00 +2°C° 0 mm 2 mps 749 mmHg 86%
    04:00 +2°C° 0 mm 2 mps 749 mmHg 86%
    05:00 +2°C° 0 mm 2 mps 749 mmHg 86%
    06:00 +2°C° 0 mm 2 mps 749 mmHg 86%
    07:00 +2°C° 0 mm 2 mps 749 mmHg 86%
    08:00 +2°C° 0 mm 2 mps 748 mmHg 86%
    09:00 +3°C° 0 mm 2 mps 748 mmHg 79%
    10:00 +5°C° 0 mm 2 mps 748 mmHg 73%
    11:00 +7°C° 0 mm 3 mps 748 mmHg 66%
    12:00 +8°C° 0 mm 3 mps 748 mmHg 62%
    13:00 +8°C° 0 mm 4 mps 747 mmHg 58%
    14:00 +11°C° 0 mm 4 mps 747 mmHg 54%
    15:00 +10°C° 0 mm 4 mps 747 mmHg 57%
    16:00 +9°C° 0 mm 3 mps 746 mmHg 59%
    17:00 +9°C° 0 mm 3 mps 746 mmHg 62%
    18:00 +8°C° 0 mm 3 mps 746 mmHg 67%
    19:00 +6°C° 0 mm 4 mps 746 mmHg 71%
    20:00 +4°C° 0 mm 4 mps 746 mmHg 76%
    21:00 +4°C° 0 mm 4 mps 746 mmHg 77%
    22:00 +4°C° 0 mm 4 mps 746 mmHg 78%
    23:00 +4°C° 0 mm 4 mps 746 mmHg 79%

    Day after tomorrow, 20 February, Wednesday

    Time Temperature Precipitation Wind Pressure Humidity
    00:00 +3°C° 0 mm 4 mps 746 mmHg 80%
    01:00 +3°C° 0 mm 4 mps 746 mmHg 82%
    02:00 +3°C° 0 mm 4 mps 746 mmHg 83%
    03:00 +3°C° 0.1 mm 4 mps 746 mmHg 83%
    04:00 +3°C° 0.1 mm 4 mps 746 mmHg 83%
    05:00 +3°C° 0.1 mm 4 mps 746 mmHg 83%
    06:00 +3°C° 0.4 mm 4 mps 746 mmHg 86%
    07:00 +3°C° 0.4 mm 4 mps 747 mmHg 89%
    08:00 +3°C° 0.4 mm 4 mps 747 mmHg 92%
    09:00 +3°C° 0 mm 5 mps 747 mmHg 86%
    10:00 +5°C° 0 mm 5 mps 747 mmHg 80%
    11:00 +5°C° 0 mm 6 mps 748 mmHg 74%
    12:00 +5°C° 0 mm 6 mps 748 mmHg 68%
    13:00 +7°C° 0 mm 6 mps 748 mmHg 62%
    14:00 +8°C° 0 mm 6 mps 748 mmHg 56%
    15:00 +7°C° 0 mm 6 mps 748 mmHg 59%
    16:00 +7°C° 0 mm 5 mps 748 mmHg 62%
    17:00 +6°C° 0 mm 5 mps 748 mmHg 66%
    18:00 +5°C° 0 mm 5 mps 748 mmHg 69%
    19:00 +4°C° 0 mm 4 mps 749 mmHg 73%
    20:00 +4°C° 0 mm 4 mps 749 mmHg 77%
    21:00 +4°C° 0 mm 4 mps 749 mmHg 77%
    22:00 +4°C° 0 mm 4 mps 750 mmHg 77%
    23:00 +3°C° 0 mm 4 mps 750 mmHg 78%

    21 February, Thursday

    Time Temperature Precipitation Wind Pressure Humidity
    00:00 +3°C° 0 mm 4 mps 750 mmHg 80%
    01:00 +3°C° 0 mm 4 mps 750 mmHg 82%
    02:00 +3°C° 0 mm 4 mps 750 mmHg 84%
    03:00 +3°C° 0 mm 4 mps 750 mmHg 86%
    04:00 +3°C° 0 mm 4 mps 750 mmHg 87%
    05:00 +1°C° 0 mm 4 mps 750 mmHg 88%
    06:00 +1°C° 0 mm 4 mps 750 mmHg 87%
    07:00 +3°C° 0 mm 4 mps 750 mmHg 85%
    08:00 +3°C° 0 mm 4 mps 750 mmHg 84%
    09:00 +3°C° 0 mm 5 mps 750 mmHg 79%
    10:00 +5°C° 0 mm 5 mps 750 mmHg 74%
    11:00 +5°C° 0 mm 6 mps 750 mmHg 69%
    12:00 +5°C° 0.1 mm 6 mps 750 mmHg 68%
    13:00 +7°C° 0.1 mm 6 mps 750 mmHg 67%
    14:00 +7°C° 0.1 mm 6 mps 750 mmHg 66%
    15:00 +7°C° 0.1 mm 6 mps 750 mmHg 69%
    16:00 +6°C° 0.1 mm 5 mps 750 mmHg 71%
    17:00 +6°C° 0.1 mm 5 mps 750 mmHg 74%
    18:00 +5°C° 0 mm 4 mps 750 mmHg 77%
    19:00 +5°C° 0 mm 4 mps 750 mmHg 79%
    20:00 +5°C° 0 mm 4 mps 751 mmHg 82%
    21:00 +5°C° 0.3 mm 3 mps 751 mmHg 85%
    22:00 +5°C° 0.3 mm 3 mps 751 mmHg 88%
    23:00 +4°C° 0.3 mm 3 mps 751 mmHg 90%

    22 February, Friday

    Time Temperature Precipitation Wind Pressure Humidity
    00:00 +4°C° 0.1 mm 3 mps 752 mmHg 91%
    01:00 +4°C° 0.1 mm 3 mps 752 mmHg 91%
    02:00 +4°C° 0.1 mm 3 mps 752 mmHg 92%
    03:00 +4°C° 0.1 mm 3 mps 752 mmHg 93%
    04:00 +4°C° 0.1 mm 3 mps 753 mmHg 94%
    05:00 +4°C° 0.1 mm 3 mps 753 mmHg 95%
    06:00 +4°C° 0.3 mm 3 mps 753 mmHg 94%
    07:00 +4°C° 0.3 mm 4 mps 754 mmHg 94%
    08:00 +4°C° 0.3 mm 4 mps 754 mmHg 93%
    09:00 +3°C° 0.2 mm 4 mps 755 mmHg 89%
    10:00 +3°C° 0.2 mm 4 mps 756 mmHg 85%
    11:00 +2°C° 0.2 mm 3 mps 756 mmHg 81%
    12:00 +2°C° 0 mm 3 mps 757 mmHg 72%
    13:00 +3°C° 0 mm 3 mps 757 mmHg 62%
    14:00 +4°C° 0 mm 3 mps 757 mmHg 53%
    15:00 +3°C° 0 mm 3 mps 758 mmHg 51%
    16:00 +3°C° 0 mm 4 mps 758 mmHg 50%
    17:00 +1°C° 0 mm 4 mps 759 mmHg 48%
    18:00 +1°C° 0 mm 3 mps 759 mmHg 52%
    19:00 0°C° 0 mm 3 mps 760 mmHg 56%
    20:00 -1°C° 0 mm 3 mps 761 mmHg 60%
    21:00 -1°C° 0 mm 3 mps 762 mmHg 60%
    22:00 -2°C° 0 mm 2 mps 762 mmHg 60%
    23:00 -2°C° 0 mm 2 mps 763 mmHg 60%

    23 February, Saturday

    Time Temperature Precipitation Wind Pressure Humidity
    00:00 -2°C° 0 mm 2 mps 763 mmHg 57%
    01:00 -2°C° 0 mm 2 mps 763 mmHg 55%
    02:00 -3°C° 0 mm 2 mps 763 mmHg 52%
    03:00 -3°C° 0 mm 2 mps 763 mmHg 51%
    04:00 -1°C° 0 mm 1 mps 764 mmHg 49%
    05:00 -1°C° 0 mm 1 mps 764 mmHg 48%
    06:00 -1°C° 0 mm 1 mps 764 mmHg 47%
    07:00 -1°C° 0 mm 1 mps 764 mmHg 46%
    08:00 -1°C° 0 mm 1 mps 764 mmHg 45%
    09:00 0°C° 0 mm 1 mps 764 mmHg 41%
    10:00 +1°C° 0 mm 1 mps 764 mmHg 36%
    11:00 +1°C° 0 mm 1 mps 765 mmHg 31%
    12:00 +2°C° 0 mm 1 mps 764 mmHg 30%
    13:00 +2°C° 0 mm 1 mps 764 mmHg 29%
    14:00 +3°C° 0 mm 1 mps 763 mmHg 28%
    15:00 +3°C° 0 mm 1 mps 763 mmHg 31%
    16:00 +3°C° 0 mm 1 mps 763 mmHg 33%
    17:00 +3°C° 0 mm 1 mps 762 mmHg 35%
    18:00 +3°C° 0 mm 1 mps 762 mmHg 38%
    19:00 +1°C° 0 mm 2 mps 762 mmHg 40%
    20:00 +1°C° 0 mm 2 mps 762 mmHg 43%
    21:00 +1°C° 0 mm 2 mps 761 mmHg 45%
    22:00 +1°C° 0 mm 2 mps 761 mmHg 47%
    23:00 +1°C° 0 mm 2 mps 761 mmHg 49%
    Show more